Location: Unspecified
(0.0000°N, 0.0000°E)
Time: 04:41:30
(UTC+00:00)

Oscar 11 - Visible Passes

Search period start: 17 January 2018 00:00
Search period end: 27 January 2018 00:00
Orbit: 614 x 625 km, 97.7° (Epoch: 16 January)

Date Brightness Start Highest point End Pass type
(mag) Time Alt. Az. Time Alt. Az. Time Alt. Az.
17 Jan 10.0 20:54:10 10° SSW 20:54:41 12° SW 20:54:41 12° SW visible
18 Jan 9.5 19:34:56 10° SE 19:34:57 10° SE 19:34:57 10° SE visible
19 Jan 9.2 19:51:39 10° SSE 19:52:23 14° SSE 19:52:23 14° SSE visible
20 Jan 9.2 20:08:43 10° S 20:09:49 18° S 20:09:49 18° S visible
21 Jan 9.4 20:26:05 10° S 20:27:14 18° S 20:27:14 18° S visible
22 Jan 9.8 20:43:47 10° SSW 20:44:38 14° SSW 20:44:38 14° SSW visible
23 Jan 10.2 21:02:02 10° SW 21:02:04 10° SW 21:02:04 10° SW visible
24 Jan 9.4 19:41:58 10° SE 19:42:18 12° SE 19:42:18 12° SE visible
25 Jan 9.2 19:58:51 10° SSE 19:59:43 16° SSE 19:59:43 16° SSE visible
26 Jan 9.3 20:16:03 10° S 20:17:07 17° S 20:17:07 17° S visible
